{"data":{"norad_id":65864,"intl_designator":"2025-223L","name":"STARLINK-35471","alt_names":[],"object_type":"PAYLOAD","status":"ACTIVE","operator":null,"country":"US","launch_date":"2025-10-03","launch_site_code":"AFWTR","launch_vehicle":null,"mission":null,"orbit_class":"UNKNOWN","rcs_meters":null,"size_class":null,"mass_kg":null,"dimensions":null,"purposes":["comms"],"wikipedia_slug":null,"has_3d_model":false,"image_url":null,"decayed_at":null,"tle_current":{"epoch":"2026-05-25T03:24:06.189984Z","epoch_age_seconds":65972,"freshness":"FRESH","line1":"1 65864U 25223L   26145.14173831  .00017077  00000+0  58733-3 0  9999","line2":"2 65864  53.1618 298.8589 0001618  90.5702 269.5484 15.30201479 35911","mean_motion":15.30201479,"eccentricity":0.0001618,"inclination_deg":53.1618,"raan_deg":298.8589,"arg_perigee_deg":90.5702,"mean_anomaly_deg":269.5484,"bstar":0.00058733,"rev_number":3591,"period_min":94.10525474992,"perigee_km":474.10178174515,"apogee_km":476.31952504579,"semimajor_km":6853.3476533955,"source":"CELESTRAK","updated_at":"2026-05-25T13:38:20.973844Z"}}}